sat.trackr.live / text

‹ back to catalog

STARLINK-31016

NORAD 58548 · 2023-192T

PAYLOAD ACTIVE UNKNOWN

§ Identity

Operator
Country
US
Launch date
2023-12-08
Launch site
AFWTR
Launch vehicle
Mass (kg)
RCS (m²)

Purposes: comms

External: N2YO · Heavens-Above · Gunter

§ Orbital elements

Epoch: 2026-05-25T01:50:35.756736Z

Period
94.11 min
Inclination
53.1600°
Eccentricity
0.0001154
Mean motion
15.30180246 rev/d
Perigee alt
474.5 km
Apogee alt
476.1 km
Semi-major
6,853.4 km
B*
-3.9960e-5
RAAN
67.6685°
Arg perigee
85.5142°
Mean anomaly
274.5990°
Rev number
13,768

§ Raw data

STARLINK-310161 58548U 23192T   26145.07680274 -.00001542  00000+0 -39960-4 0  99932 58548  53.1600  67.6685 0001154  85.5142 274.5990 15.30180246137682

JSON: /api/v1/satellites/58548 · /tle

For live sub-satellite position, see the globe view (requires WebGL).

§ Visibility from observer

Set your observer location to see the next 7 days of passes ≥ 10°. The values pass through the URL so the page stays shareable.

No JS? Fill the form by hand. The geolocation button needs JavaScript.